FW0810 Weather Reports


Display with metric or nautical units.
time (UTC)temp
F
wind
direction
speed
MPH
gust
MPH
rain 1hr
in
rain 24hr
in
rain mn
in
humidity
%
barometer
mb
20260831203925 77 274 0.0 1.0 0.00 0.00 0.00 65 1019.8
20260831203422 77 285 0.0 3.0 0.00 0.00 0.00 65 1019.7
20260831202923 77 280 0.0 3.0 0.00 0.00 0.00 65 1019.6
20260831202421 78 259 0.0 2.0 0.00 0.00 0.00 64 1019.5
20260831201919 78 259 0.0 2.0 0.00 0.00 0.00 64 1019.5
20260831201422 78 268 0.0 1.0 0.00 0.00 0.00 63 1019.5
20260831200419 79 268 0.0 1.0 0.00 0.00 0.00 61 1019.5
20260831195921 80 297 0.0 0.0 0.00 0.00 0.00 61 1019.5
20260831195418 80 314 0.0 0.0 0.00 0.00 0.00 60 1019.4
20260831194916 80 314 0.0 0.0 0.00 0.00 0.00 60 1019.3
20260831194414 80 314 0.0 0.0 0.00 0.00 0.00 60 1019.3
20260831193912 80 316 0.0 0.0 0.00 0.00 0.00 60 1019.3
20260831192921 81 314 0.0 0.0 0.00 0.00 0.00 59 1019.3
20260831192408 81 314 0.0 0.0 0.00 0.00 0.00 59 1019.1
20260831191905 81 314 0.0 0.0 0.00 0.00 0.00 58 1019.1
20260831191406 81 314 0.0 0.0 0.00 0.00 0.00 58 1019.0
20260831190904 82 314 0.0 0.0 0.00 0.00 0.00 57 1019.0
20260831190402 82 314 0.0 0.0 0.00 0.00 0.00 56 1019.0
20260831185859 82 314 0.0 0.0 0.00 0.00 0.00 56 1018.9
20260831185357 82 314 0.0 0.0 0.00 0.00 0.00 55 1018.9
20260831184855 82 319 0.0 0.0 0.00 0.00 0.00 55 1018.8
20260831184353 83 319 0.0 0.0 0.00 0.00 0.00 55 1018.7
20260831183852 83 320 0.0 0.0 0.00 0.00 0.00 54 1018.7
20260831183351 83 320 0.0 0.0 0.00 0.00 0.00 55 1018.6
20260831182349 84 320 0.0 0.0 0.00 0.00 0.00 54 1018.5
20260831181341 85 320 0.0 0.0 0.00 0.00 0.00 53 1018.4
20260831180841 85 320 0.0 0.0 0.00 0.00 0.00 52 1018.3
20260831180341 85 320 0.0 0.0 0.00 0.00 0.00 51 1018.2
20260831175840 85 320 0.0 0.0 0.00 0.00 0.00 51 1018.3
20260831174841 87 320 0.0 0.0 0.00 0.00 0.00 50 1018.1
20260831174339 87 320 0.0 0.0 0.00 0.00 0.00 49 1018.0
20260831173839 87 320 0.0 0.0 0.00 0.00 0.00 48 1018.0
20260831173343 88 320 0.0 0.0 0.00 0.00 0.00 48 1018.0
20260831172836 88 323 0.0 1.0 0.00 0.00 0.00 47 1018.0
20260831172330 88 324 0.0 2.0 0.00 0.00 0.00 47 1017.9
20260831171325 89 354 0.0 4.0 0.00 0.00 0.00 46 1017.9
20260831170326 90 261 0.0 3.0 0.00 0.00 0.00 46 1018.1
20260831165826 91 284 0.0 4.0 0.00 0.00 0.00 46 1018.0
20260831165325 91 293 0.0 4.0 0.00 0.00 0.00 45 1017.9
20260831164325 91 272 0.0 4.0 0.00 0.00 0.00 45 1017.9
20260831163825 92 332 0.0 3.0 0.00 0.00 0.00 45 1018.0
20260831163327 92 283 0.0 4.0 0.00 0.00 0.00 45 1018.0
20260831162825 92 293 0.0 5.0 0.00 0.00 0.00 45 1018.0
20260831162325 92 275 0.0 5.0 0.00 0.00 0.00 44 1018.0
20260831161825 92 312 0.0 4.0 0.00 0.00 0.00 45 1017.9
20260831161325 92 352 0.0 4.0 0.00 0.00 0.00 45 1018.0
20260831160830 92 264 0.0 6.0 0.00 0.00 0.00 46 1018.0
20260831160327 92 281 0.0 6.0 0.00 0.00 0.00 45 1017.9
20260831155824 92 304 0.0 4.0 0.00 0.00 0.00 45 1017.9
20260831155320 93 348 0.0 4.0 0.00 0.00 0.00 45 1018.1
20260831154813 93 344 0.0 9.0 0.00 0.00 0.00 44 1018.1
20260831153811 93 243 1.0 6.0 0.00 0.00 0.00 43 1018.1
20260831153311 93 294 1.0 6.0 0.00 0.00 0.00 42 1018.1
20260831152807 93 200 1.0 8.0 0.00 0.00 0.00 43 1018.1
20260831152307 93 13 0.0 8.0 0.00 0.00 0.00 42 1018.3
20260831151305 93 320 1.0 6.0 0.00 0.00 0.00 43 1018.3
20260831150805 93 274 1.0 6.0 0.00 0.00 0.00 43 1018.4
20260831150305 93 314 1.0 6.0 0.00 0.00 0.00 43 1018.3
20260831144805 93 258 0.0 6.0 0.00 0.00 0.00 43 1018.3
20260831144310 93 1 0.0 5.0 0.00 0.00 0.00 44 1018.4
20260831143305 92 283 1.0 7.0 0.00 0.00 0.00 46 1018.4
20260831142816 92 295 1.0 7.0 0.00 0.00 0.00 45 1018.4
20260831141804 92 269 2.0 8.0 0.00 0.00 0.00 45 1018.4
20260831141304 92 266 1.0 8.0 0.00 0.00 0.00 45 1018.4
20260831140303 92 287 2.0 9.0 0.00 0.00 0.00 45 1018.4
20260831135803 92 264 2.0 9.0 0.00 0.00 0.00 46 1018.5
20260831135306 92 258 1.0 8.0 0.00 0.00 0.00 46 1018.6
20260831134805 92 325 2.0 11.0 0.00 0.00 0.00 46 1018.7
20260831134301 92 256 2.0 11.0 0.00 0.00 0.00 45 1018.6
20260831133801 92 1 1.0 8.0 0.00 0.00 0.00 45 1018.7
20260831133257 92 222 1.0 6.0 0.00 0.00 0.00 47 1018.7
20260831132800 91 276 1.0 7.0 0.00 0.00 0.00 47 1018.7
20260831132258 92 194 2.0 10.0 0.00 0.00 0.00 46 1018.7
20260831131757 91 278 2.0 10.0 0.00 0.00 0.00 45 1018.8
20260831131257 92 317 1.0 7.0 0.00 0.00 0.00 45 1018.8
20260831130758 91 260 1.0 7.0 0.00 0.00 0.00 45 1018.9
20260831130259 91 257 2.0 10.0 0.00 0.00 0.00 45 1018.9
20260831125757 91 278 2.0 12.0 0.00 0.00 0.00 46 1018.9
20260831125258 91 328 2.0 12.0 0.00 0.00 0.00 45 1019.0
20260831124757 91 288 1.0 11.0 0.00 0.00 0.00 45 1018.9
20260831124259 91 238 1.0 11.0 0.00 0.00 0.00 45 1019.0
20260831123758 91 300 1.0 7.0 0.00 0.00 0.00 46 1019.0
20260831123258 91 281 1.0 4.0 0.00 0.00 0.00 45 1018.9
20260831122259 91 285 2.0 8.0 0.00 0.00 0.00 45 1019.0
20260831121757 91 247 2.0 12.0 0.00 0.00 0.00 46 1019.0
20260831121255 90 271 2.0 12.0 0.00 0.00 0.00 46 1019.1
20260831120756 90 226 1.0 8.0 0.00 0.00 0.00 48 1019.0
20260831115755 90 326 1.0 6.0 0.00 0.00 0.00 48 1019.0
20260831115253 90 304 1.0 6.0 0.00 0.00 0.00 47 1019.1
20260831114751 90 207 1.0 6.0 0.00 0.00 0.00 47 1019.0
20260831114251 89 1 1.0 7.0 0.00 0.00 0.00 47 1019.1
20260831113751 89 302 1.0 7.0 0.00 0.00 0.00 47 1019.1
20260831113249 89 248 1.0 5.0 0.00 0.00 0.00 46 1019.1
20260831112751 89 278 1.0 8.0 0.00 0.00 0.00 48 1019.1
20260831112249 88 229 1.0 8.0 0.00 0.00 0.00 47 1019.2
20260831111749 88 277 1.0 7.0 0.00 0.00 0.00 47 1019.2
20260831111248 88 276 2.0 7.0 0.00 0.00 0.00 47 1019.3
20260831110750 88 251 2.0 8.0 0.00 0.00 0.00 46 1019.3
20260831110251 88 283 1.0 8.0 0.00 0.00 0.00 44 1019.3
20260831105748 88 304 1.0 6.0 0.00 0.00 0.00 44 1019.3
20260831105247 87 273 1.0 8.0 0.00 0.00 0.00 44 1019.3
20260831104745 87 1 1.0 8.0 0.00 0.00 0.00 45 1019.4
20260831104246 87 253 1.0 7.0 0.00 0.00 0.00 47 1019.4
20260831103745 87 3 1.0 7.0 0.00 0.00 0.00 49 1019.4
20260831103241 87 324 1.0 5.0 0.00 0.00 0.00 51 1019.4
20260831102741 86 328 0.0 5.0 0.00 0.00 0.00 51 1019.4
20260831102241 86 309 1.0 7.0 0.00 0.00 0.00 53 1019.4
20260831101741 86 323 1.0 7.0 0.00 0.00 0.00 53 1019.6
20260831101240 85 275 0.0 6.0 0.00 0.00 0.00 57 1019.6
20260831100738 85 276 0.0 5.0 0.00 0.00 0.00 58 1019.5
20260831100238 85 276 1.0 9.0 0.00 0.00 0.00 59 1019.5
20260831095238 85 297 0.0 4.0 0.00 0.00 0.00 58 1019.6
20260831094736 85 316 1.0 5.0 0.00 0.00 0.00 57 1019.7
20260831093736 84 266 0.0 5.0 0.00 0.00 0.00 58 1019.7
20260831093234 83 288 1.0 7.0 0.00 0.00 0.00 58 1019.7
20260831092235 83 255 1.0 7.0 0.00 0.00 0.00 60 1019.8
20260831091736 83 307 0.0 5.0 0.00 0.00 0.00 64 1019.7
20260831090734 82 350 1.0 6.0 0.00 0.00 0.00 63 1019.7
20260831085728 82 276 1.0 4.0 0.00 0.00 0.00 65 1019.7
20260831085227 82 326 0.0 4.0 0.00 0.00 0.00 65 1019.8
20260831084726 82 258 0.0 3.0 0.00 0.00 0.00 65 1019.8
20260831084227 82 314 0.0 2.0 0.00 0.00 0.00 66 1019.7
20260831083726 82 283 1.0 6.0 0.00 0.00 0.00 67 1019.7
20260831083227 82 276 1.0 7.0 0.00 0.00 0.00 66 1019.7
20260831082728 82 292 0.0 7.0 0.00 0.00 0.00 66 1019.7
20260831082226 82 188 0.0 1.0 0.00 0.00 0.00 68 1019.7
20260831081726 81 199 0.0 3.0 0.00 0.00 0.00 68 1019.7
20260831081227 81 276 0.0 3.0 0.00 0.00 0.00 69 1019.7
20260831080724 80 321 0.0 0.0 0.00 0.00 0.00 71 1019.7
20260831080224 80 319 0.0 2.0 0.00 0.00 0.00 71 1019.7
20260831075726 79 317 0.0 6.0 0.00 0.00 0.00 71 1019.7
20260831075223 79 298 0.0 6.0 0.00 0.00 0.00 72 1019.7
20260831074721 79 254 0.0 4.0 0.00 0.00 0.00 73 1019.6
20260831074220 79 333 0.0 1.0 0.00 0.00 0.00 73 1019.5
20260831073221 78 336 0.0 4.0 0.00 0.00 0.00 74 1019.6
20260831072722 78 323 0.0 2.0 0.00 0.00 0.00 75 1019.5
20260831072221 78 324 0.0 4.0 0.00 0.00 0.00 75 1019.5
20260831071720 78 321 0.0 4.0 0.00 0.00 0.00 76 1019.5
20260831071219 78 303 0.0 2.0 0.00 0.00 0.00 77 1019.5
20260831070214 77 304 0.0 1.0 0.00 0.00 0.00 78 1019.3
20260831065715 76 336 0.0 1.0 0.00 0.00 0.00 78 1019.4
20260831065214 76 203 0.0 2.0 0.00 0.00 0.00 78 1019.5
20260831064715 76 201 0.0 2.0 0.00 0.00 0.00 79 1019.4
20260831064214 75 273 0.0 0.0 0.00 0.00 0.00 80 1019.4
20260831063714 74 274 0.0 0.0 0.00 0.00 0.00 81 1019.3
20260831063212 74 274 0.0 0.0 0.00 0.00 0.00 81 1019.4
20260831062714 73 274 0.0 0.0 0.00 0.00 0.00 81 1019.3
20260831062211 73 274 0.0 0.0 0.00 0.00 0.00 82 1019.3
20260831061713 72 274 0.0 0.0 0.00 0.00 0.00 84 1019.4
20260831061212 71 274 0.0 0.0 0.00 0.00 0.00 84 1019.4
20260831060209 70 274 0.0 0.0 0.00 0.00 0.00 85 1019.3
20260831055709 69 274 0.0 2.0 0.00 0.00 0.00 85 1019.3
20260831055205 69 274 0.0 2.0 0.00 0.00 0.00 85 1019.3
20260831054705 68 273 0.0 1.0 0.00 0.00 0.00 85 1019.2
20260831052702 67 274 0.0 3.0 0.00 0.00 0.00 84 1019.1
20260831052202 67 273 0.0 0.0 0.00 0.00 0.00 85 1019.1
20260831050700 67 274 0.0 0.0 0.00 0.00 0.00 84 1019.0
20260831050200 67 274 0.0 0.0 0.00 0.00 0.00 84 1018.9
20260831045702 66 274 0.0 0.0 0.00 0.00 0.00 84 1018.9
20260831045200 67 274 0.0 0.0 0.00 0.00 0.00 83 1019.0
20260831044701 67 274 0.0 0.0 0.00 0.00 0.00 83 1018.9
20260831043658 67 269 0.0 0.0 0.00 0.00 0.00 83 1019.0
20260831043159 67 269 0.0 0.0 0.00 0.00 0.00 82 1019.0
20260831042156 67 269 0.0 1.0 0.00 0.00 0.00 82 1018.9
20260831041656 67 267 0.0 1.0 0.00 0.00 0.00 82 1018.9
20260831041158 67 274 0.0 0.0 0.00 0.00 0.00 81 1018.8
20260831040157 67 274 0.0 0.0 0.00 0.00 0.00 81 1018.9
20260831035654 67 274 0.0 0.0 0.00 0.00 0.00 80 1018.9
20260831035151 67 274 0.0 0.0 0.00 0.00 0.00 80 1018.8
20260831034653 68 274 0.0 0.0 0.00 0.00 0.00 80 1018.9
20260831034152 68 274 0.0 0.0 0.00 0.00 0.00 80 1018.8
20260831033652 68 274 0.0 1.0 0.00 0.00 0.00 79 1018.8
20260831033152 68 274 0.0 2.0 0.00 0.00 0.00 79 1018.7
20260831032656 68 276 0.0 3.0 0.00 0.00 0.00 78 1018.7
20260831032152 68 276 0.0 3.0 0.00 0.00 0.00 78 1018.6
20260831031654 69 276 0.0 3.0 0.00 0.00 0.00 77 1018.6
20260831031147 69 274 0.0 3.0 0.00 0.00 0.00 77 1018.6
20260831030648 69 266 0.0 0.0 0.00 0.00 0.00 77 1018.6
20260831030149 69 266 0.0 0.0 0.00 0.00 0.00 76 1018.6
20260831025150 70 265 0.0 0.0 0.00 0.00 0.00 75 1018.7
20260831024648 70 267 0.0 1.0 0.00 0.00 0.00 75 1018.7
20260831024149 70 266 0.0 1.0 0.00 0.00 0.00 74 1018.6
20260831023648 71 263 0.0 0.0 0.00 0.00 0.00 74 1018.6
20260831023147 71 263 0.0 0.0 0.00 0.00 0.00 74 1018.6
20260831022640 71 263 0.0 0.0 0.00 0.00 0.00 74 1018.7
20260831022135 71 263 0.0 0.0 0.00 0.00 0.00 74 1018.6
20260831021629 71 262 0.0 3.0 0.00 0.00 0.00 73 1018.6
20260831021127 71 260 0.0 3.0 0.00 0.00 0.00 73 1018.7
20260831020617 71 259 0.0 3.0 0.00 0.00 0.00 72 1018.6
20260831020111 72 281 0.0 3.0 0.00 0.00 0.00 72 1018.6
20260831015606 72 281 0.0 1.0 0.00 0.00 0.00 72 1018.6
20260831015059 72 266 0.0 0.0 0.00 0.00 0.00 72 1018.7
20260831014555 72 265 0.0 0.0 0.00 0.00 0.00 72 1018.6
20260831014047 72 265 0.0 0.0 0.00 0.00 0.00 72 1018.7
20260831013542 72 265 0.0 0.0 0.00 0.00 0.00 72 1018.7
20260831012530 73 265 0.0 0.0 0.00 0.00 0.00 71 1018.7
20260831012028 73 265 0.0 0.0 0.00 0.00 0.00 71 1018.6
20260831011517 73 265 0.0 1.0 0.00 0.00 0.00 70 1018.7
20260831011011 73 266 0.0 1.0 0.00 0.00 0.00 70 1018.6
20260831010507 74 256 0.0 1.0 0.00 0.00 0.00 69 1018.7
20260831010007 74 255 0.0 1.0 0.00 0.00 0.00 69 1018.7
20260831005506 74 255 0.0 0.0 0.00 0.00 0.00 69 1018.6
20260831005004 74 255 0.0 0.0 0.00 0.00 0.00 69 1018.6
20260831004503 74 255 0.0 0.0 0.00 0.00 0.00 69 1018.6
20260831004004 74 255 0.0 0.0 0.00 0.00 0.00 69 1018.6
20260831003502 74 255 0.0 0.0 0.00 0.00 0.00 69 1018.7
20260831001957 75 255 0.0 0.0 0.00 0.00 0.00 68 1018.7
20260831001453 75 255 0.0 0.0 0.00 0.00 0.00 67 1018.8
20260831000951 75 255 0.0 0.0 0.00 0.00 0.00 67 1018.7
20260831000454 75 255 0.0 0.0 0.00 0.00 0.00 67 1018.7
20260830235951 75 255 0.0 0.0 0.00 0.00 0.00 66 1018.7
20260830235452 76 255 0.0 0.0 0.00 0.00 0.00 66 1018.7
20260830234947 76 255 0.0 0.0 0.00 0.00 0.00 65 1018.6
20260830234446 76 255 0.0 0.0 0.00 0.00 0.00 65 1018.7
20260830233943 76 255 0.0 2.0 0.00 0.00 0.00 65 1018.7
20260830233442 76 253 0.0 2.0 0.00 0.00 0.00 65 1018.6
20260830232952 76 285 0.0 1.0 0.00 0.00 0.00 64 1018.7
20260830231933 76 288 0.0 0.0 0.00 0.00 0.00 64 1018.6
20260830231430 77 289 0.0 0.0 0.00 0.00 0.00 64 1018.6
20260830230415 77 289 0.0 0.0 0.00 0.00 0.00 63 1018.5
20260830225909 77 289 0.0 0.0 0.00 0.00 0.00 63 1018.5
20260830225403 77 294 0.0 1.0 0.00 0.00 0.00 63 1018.5
20260830224858 77 293 0.0 3.0 0.00 0.00 0.00 63 1018.6
20260830224351 77 330 0.0 3.0 0.00 0.00 0.00 62 1018.5
20260830223846 78 275 0.0 1.0 0.00 0.00 0.00 62 1018.5
20260830223339 78 276 0.0 1.0 0.00 0.00 0.00 62 1018.5
20260830222834 78 275 0.0 2.0 0.00 0.00 0.00 62 1018.6
20260830221821 78 293 0.0 2.0 0.00 0.00 0.00 62 1018.4
20260830221322 78 284 0.0 4.0 0.00 0.00 0.00 61 1018.4
20260830220823 78 266 0.0 4.0 0.00 0.00 0.00 61 1018.3
20260830220321 78 280 0.0 0.0 0.00 0.00 0.00 61 1018.4
20260830215819 78 282 0.0 0.0 0.00 0.00 0.00 61 1018.3
20260830215318 78 282 0.0 0.0 0.00 0.00 0.00 61 1018.2
20260830214317 78 319 0.0 3.0 0.00 0.00 0.00 61 1018.2
20260830213816 78 267 0.0 3.0 0.00 0.00 0.00 61 1018.3
20260830213314 79 276 0.0 1.0 0.00 0.00 0.00 60 1018.3
20260830212812 79 276 0.0 1.0 0.00 0.00 0.00 60 1018.2
20260830212310 79 270 0.0 0.0 0.00 0.00 0.00 59 1018.2
20260830211810 79 270 0.0 1.0 0.00 0.00 0.00 59 1018.1
20260830211309 79 270 0.0 1.0 0.00 0.00 0.00 58 1018.1
20260830210307 80 274 0.0 1.0 0.00 0.00 0.00 58 1018.1
20260830205802 80 278 0.0 0.0 0.00 0.00 0.00 57 1018.1
20260830204243 80 275 0.0 0.0 0.00 0.00 0.00 57 1017.9